CAPE
331 720 367 1111 1336 1281 1476 1480 1599 1680 1697 1800 1833 1797 1626 1577 1783 1692 1667 1583 1449 1602 1487 1438 1524 1636 1458 1488 1359 1235 1469 1459 1317 1156 1387 1302 1120 995 1075 1254 1237 1650 1882
335 334 580 1247 1403 1274 1369 1561 1498 1507 1474 1494 1594 1722 1787 1802 1800 1482 1257 1462 1534 1434 1451 1285 1390 1556 1392 1259 1487 1450 1381 1386 1360 1191 1329 1344 1193 1290 1246 1644 1654 1756 1821
451 619 828 1262 1448 1241 1400 1420 1485 1507 1579 1775 1896 1688 1709 1829 1759 1740 1658 1673 1547 1584 1441 1185 1095 1243 1339 1299 1149 1167 1002 946 1164 1019 840 1014 1289 1355 1557 1372 1342 1341 1533
619 808 1029 1639 1369 1408 1520 1476 1537 1585 1533 1634 1758 1756 1675 1464 1805 1661 1642 1643 1602 1582 1478 1413 1499 1376 610 280 438 873 1010 1138 965 1202 791 216 376 1011 1223 1119 1355 1564 1498
625 729 1512 1368 1618 1514 1565 1487 1382 1242 1016 584 830 1365 1583 1570 1842 1809 1778 1736 1484 1148 860 731 866 919 662 470 232 160 300 468 847 1324 1087 451 739 1144 833 1144 1228 1381 1168
678 1264 1583 1518 1500 1505 1541 1305 1161 1477 1473 1110 635 789 1213 1138 1682 1814 1718 1451 1131 885 570 606 807 543 284 477 397 554 600 910 1249 402 284 534 953 1285 1328 1334 1097 837 683
846 1341 1602 1652 1510 1493 1410 1235 1485 1665 1600 1623 1229 768 962 990 1228 1378 1325 1134 957 651 470 776 1096 865 255 329 445 442 487 920 600 584 634 493 631 754 1189 892 852 782 765
894 1344 1252 1567 1527 1582 1306 1747 1589 1492 1541 1668 1340 760 855 824 878 844 750 602 521 314 284 342 698 322 74 84 137 183 316 807 257 211 284 931 948 775 613 1129 979 750 1327
904 1013 1240 1510 1721 1476 1285 1373 1427 1313 1306 1137 842 688 704 692 618 580 484 388 287 261 187 131 229 271 65 78 85 105 194 479 32 6 24 277 610 802 479 388 593 1058 627
761 805 1062 1355 1477 860 700 789 907 985 1315 1437 1094 927 902 784 574 510 309 285 383 330 180 133 193 285 460 427 269 183 264 507 184 15 0 126 605 526 238 251 298 461 543
646 576 946 1012 1044 522 113 375 681 914 937 1215 1493 1579 1494 1201 1154 779 670 345 365 408 358 426 390 333 204 160 373 910 1244 352 72 0 0 73 109 227 364 294 226 229 292
629 371 820 876 895 484 0 146 472 812 1200 1307 1131 1386 1792 1776 1420 1264 1119 1214 1199 1780 2075 1617 1412 1169 969 855 1144 847 803 607 0 0 0 36 100 198 186 171 260 263 298
613 702 55 680 1066 1157 0 162 453 994 1221 1411 1592 1378 1396 1502 1493 1523 1178 1272 1344 1537 515 838 1690 2128 541 453 461 280 222 358 0 0 0 9 31 93 111 49 25 44 63
332 304 0 214 774 803 708 370 334 872 647 1127 1134 38 627 1011 1612 1233 1355 1373 1686 351 0 251 1255 661 132 335 200 1 288 41 58 3 29 30 29 85 113 58 39 28 21
253 218 0 241 372 545 992 558 482 378 316 403 207 0 4 469 1094 1607 1139 859 1215 975 1012 754 1080 16 254 250 175 333 65 11 138 376 56 61 72 213 333 215 113 84 91
217 34 578 696 795 610 525 223 49 0 0 0 925 141 499 0 1390 1482 424 713 987 547 861 1089 323 116 62 19 139 27 8 0 0 569 289 40 203 230 217 354 463 373 236
207 219 220 640 604 768 477 652 274 318 227 336 1181 579 0 735 1127 1240 332 1141 922 700 686 789 623 94 0 0 137 0 5 1 45 164 315 528 453 273 269 362 318 504 698
583 499 223 584 516 705 500 496 767 855 416 679 1113 1065 661 590 1052 955 760 1280 786 341 448 1300 747 693 582 135 62 164 0 295 129 78 0 440 613 345 179 321 690 492 486
593 520 158 325 534 489 685 942 1151 782 394 656 870 962 868 750 932 557 413 806 608 213 531 1674 1349 1137 716 416 704 406 4 151 630 546 303 482 152 176 0 0 11 514 580
406 459 54 104 479 488 944 1383 782 791 445 1003 833 948 851 569 549 684 613 599 822 360 942 868 875 965 1047 841 1104 939 838 725 452 304 282 191 209 358 339 59 100 721 847
375 416 137 467 393 780 721 895 798 984 1126 826 904 975 991 1064 651 1106 1017 1188 1239 1583 986 762 660 566 575 830 729 949 1040 662 427 432 168 0 80 394 502 414 505 1041 887
514 562 151 978 361 880 746 530 1035 1271 839 1133 559 494 490 401 582 1276 1396 1188 1938 1382 1147 1010 1536 705 649 763 474 798 590 376 432 682 307 175 368 525 481 477 1240 1279 1374
318 296 334 692 415 430 568 958 1151 1280 1338 1046 747 689 518 584 607 693 925 1614 1453 1518 980 1560 1507 1483 1335 1275 956 835 457 524 582 357 99 211 58 124 194 144 177 1015 1356
641 694 881 658 495 339 670 932 825 832 748 752 572 459 336 334 464 156 245 685 674 1194 1271 1265 1651 1283 1313 1177 1453 1437 1114 1235 1196 685 385 308 331 277 133 42 123 443 408
643 675 704 750 615 433 603 909 988 795 830 698 274 48 16 18 22 769 400 91 187 724 1019 1068 1081 1227 1393 1318 1428 1209 1211 1111 1112 1092 747 483 273 182 52 1 0 0 1
648 744 924 1031 1067 1093 895 802 896 731 770 553 468 349 427 468 167 382 166 8 44 478 324 744 778 825 948 1158 1349 1558 1634 1508 1255 1268 992 913 902 809 398 196 23 1 1
CIN
-4 -3 -10 -1 -1 0 0 0 0 0 0 0 0 0 0 0 0 0 0 0 -2 0 0 0 -1 -3 -10 -12 -11 -10 -2 -2 -14 -22 -7 -7 -11 -10 -3 -1 -5 0 0
-11 -17 -16 0 0 -2 0 0 0 0 0 0 0 0 0 0 0 -1 -2 -1 0 0 0 -2 -3 -4 -17 -26 -15 -14 -7 -7 -2 -5 -7 -9 -2 -7 -6 0 0 0 0
-14 -10 -7 -1 0 -2 0 -1 0 0 0 0 0 0 0 0 0 0 0 0 0 0 0 0 -5 -12 -19 -26 -31 -28 -18 -15 -9 -12 -21 -27 -5 -1 0 -3 -6 -5 -1
-13 -12 -4 0 -2 -1 0 0 0 0 0 0 0 0 0 0 0 0 0 0 0 0 0 0 0 -8 -58 -82 -62 -38 -32 -20 -13 -6 -10 -74 -59 -15 -5 -12 -2 0 -8
-30 -27 0 -2 0 0 0 -1 -1 -1 -8 -35 -19 -1 0 0 0 0 0 0 0 -3 -19 -32 -37 -50 -63 -72 -111 -146 -118 -89 -35 -15 -8 -52 -52 -6 -46 -21 -10 -4 -21
-34 -5 0 0 -2 0 0 -2 -3 -1 -1 -3 -55 -41 -9 -19 0 0 0 -1 -15 -43 -79 -80 -71 -113 -138 -104 -106 -95 -95 -48 -15 -73 -109 -73 -60 -17 -19 -14 -17 -35 -67
-23 -2 0 0 -2 -1 -1 -3 -2 -3 -2 0 -14 -64 -47 -47 -34 -23 -24 -46 -71 -116 -146 -110 -83 -104 -177 -139 -118 -124 -98 -47 -42 -69 -90 -135 -124 -112 -53 -74 -60 -67 -80
-36 -3 -12 -5 -5 0 -13 -1 -6 -10 -7 -3 -24 -95 -84 -85 -82 -93 -111 -139 -162 -196 -205 -202 -158 -207 -252 -223 -198 -183 -145 -89 -112 -139 -176 -113 -113 -128 -154 -56 -65 -91 -27
-44 -43 -27 -4 0 -16 -33 -26 -22 -32 -35 -40 -81 -102 -107 -111 -130 -143 -161 -183 -195 -215 -229 -259 -227 -215 -266 -245 -233 -229 -187 -135 -239 -54 -329 -240 -177 -141 -185 -183 -143 -66 -122
-44 -49 -42 -30 -15 -73 -80 -68 -62 -60 -45 -47 -70 -92 -88 -101 -141 -168 -192 -198 -188 -190 -210 -251 -214 -205 -194 -195 -210 -193 -176 -148 -204 -267 0 -306 -197 -194 -254 -234 -219 -165 -140
-43 -48 -45 -49 -47 -102 -138 -90 -63 -42 -42 -38 -47 -57 -74 -101 -108 -125 -136 -162 -157 -163 -161 -147 -152 -162 -195 -232 -173 -133 -107 -192 -214 0 0 -342 -331 -280 -242 -240 -248 -225 -205
-23 -40 -60 -51 -64 -92 0 -110 -91 -65 -44 -41 -65 -71 -70 -84 -98 -86 -83 -92 -98 -76 -62 -85 -116 -119 -112 -113 -105 -106 -105 -113 -1 0 0 -355 -334 -295 -291 -285 -245 -235 -214
-43 -31 -122 -43 -41 -44 0 -86 -73 -55 -46 -27 -18 -45 -57 -69 -68 -62 -82 -68 -106 -110 -140 -145 -104 -71 -150 -208 -198 -170 -167 -128 -1 0 0 -330 -342 -316 -311 -319 -336 -315 -291
-49 -50 0 -56 -36 -52 -50 -60 -68 -49 -43 -53 -44 -248 -111 -47 -37 -32 -42 -59 -88 -107 0 -119 -123 -199 -316 -196 -280 -7 -136 -219 -234 -70 -270 -280 -264 -281 -253 -285 -294 -297 -299
-44 -31 0 -41 -34 -29 -24 -56 -61 -59 -50 -83 -111 0 -19 -79 -40 -42 -31 -52 -69 -45 -44 -62 -144 -294 -159 -157 -266 -202 -153 -287 -243 -193 -203 -244 -331 -274 -240 -239 -249 -271 -265
-56 -65 -21 -22 -27 -25 -28 -75 -26 0 0 0 -83 -48 -59 0 -48 -47 -49 -52 -45 -28 -27 -33 -204 -222 -249 -195 -145 -181 -93 0 0 -185 -198 -344 -284 -252 -290 -271 -237 -237 -228
-53 -35 -47 -38 -33 -25 -28 -38 -65 -57 -75 -72 -56 -75 0 -36 -35 -30 -48 -22 -49 -35 -26 -35 -148 -252 0 0 -227 0 -119 -87 -292 -198 -181 -210 -224 -241 -272 -216 -241 -225 -201
-36 -24 -56 -30 -49 -45 -50 -32 -23 -29 -37 -40 -44 -42 -41 -39 -32 -29 -35 -32 -24 -26 -35 -30 -169 -167 -153 -179 -267 -222 0 -147 -240 -257 0 -171 -151 -241 -253 -202 -147 -184 -213
-43 -40 -57 -41 -49 -48 -36 -32 -20 -16 -19 -24 -27 -32 -27 -29 -25 -41 -41 -38 -44 -68 -51 -34 -31 -47 -74 -95 -133 -152 -56 -133 -125 -202 -214 -164 -202 -225 0 0 -141 -165 -158
-35 -44 -90 -85 -49 -46 -23 -21 -25 -22 -18 -21 -44 -29 -26 -28 -34 -34 -37 -38 -39 -41 -34 -45 -57 -66 -67 -59 -44 -57 -54 -72 -102 -165 -170 -169 -159 -103 -134 -205 -217 -119 -125
-31 -34 -46 -16 -34 -35 -33 -34 -29 -22 -26 -37 -40 -45 -29 -31 -15 -18 -15 -16 -17 -18 -17 -38 -53 -80 -103 -71 -83 -59 -68 -58 -73 -73 -129 0 -121 -111 -127 -151 -170 -88 -106
-50 -28 -47 -12 -39 -28 -32 -28 -20 -20 -36 -22 -59 -77 -72 -55 -44 -41 -18 -13 -12 -15 -14 -18 -11 -44 -55 -47 -81 -71 -94 -118 -81 -71 -84 -99 -87 -76 -81 -78 -82 -93 -58
-55 -48 -33 -16 -42 -47 -32 -19 -13 -14 -24 -30 -59 -51 -78 -94 -80 -75 -47 -20 -16 -14 -16 -16 -13 -13 -9 -17 -29 -23 -63 -84 -115 -110 -120 -86 -131 -94 -99 -91 -55 -44 -47
-64 -54 -40 -31 -55 -48 -36 -25 -13 -15 -19 -34 -61 -80 -141 -155 -114 -163 -151 -82 -46 -35 -7 -17 -11 -23 -17 -16 -17 -22 -34 -28 -16 -87 -116 -111 -85 -74 -100 -107 -63 -25 -42
-57 -71 -72 -66 -61 -51 -40 -26 -27 -29 -52 -68 -101 -135 -182 -246 -242 -91 -114 -118 -64 -67 -47 -21 -32 -33 -24 -17 -13 -17 -23 -25 -34 -19 -51 -91 -96 -85 -109 -21 0 0 -7
-54 -68 -63 -43 -45 -36 -49 -22 -20 -32 -42 -74 -86 -85 -79 -75 -110 -76 -127 -183 -44 -70 -131 -54 -57 -50 -45 -29 -21 -16 -11 -8 -17 -15 -21 -38 -37 -60 -51 -44 -143 -41 -6
Wind_Speed
28 26 16 26 26 20 16 9 3 7 12 18 20 23 23 24 26 28 29 29 30 31 31 31 31 31 31 31 31 31 31 31 31 31 31 30 29 29 28 27 26 25 25
30 29 27 29 26 22 16 6 4 7 16 21 22 22 23 25 27 28 30 31 31 31 31 31 31 31 31 31 31 32 32 32 32 33 32 30 30 29 28 27 26 26 26
28 29 31 31 27 18 2 1 3 12 22 23 23 23 25 26 28 30 31 31 31 30 28 30 30 30 30 31 31 31 31 32 32 33 32 31 30 30 29 28 27 26 25
28 28 30 29 25 3 4 5 6 25 23 22 24 24 25 28 28 31 30 29 29 26 27 28 29 30 30 30 30 30 30 29 29 27 28 30 30 30 30 30 29 28 26
25 29 28 27 23 5 3 19 25 25 24 25 25 25 28 30 29 28 27 26 27 26 26 27 29 30 30 29 29 29 28 27 25 23 24 29 29 30 30 30 29 28 28
26 27 27 26 20 14 23 23 21 20 25 27 27 28 30 28 26 25 26 26 26 26 26 28 29 30 28 28 28 26 24 23 23 35 32 29 29 29 30 30 31 30 28
26 27 26 25 21 21 19 23 27 25 24 28 29 30 29 28 27 27 27 27 27 27 27 28 30 30 29 28 26 25 24 22 32 31 31 30 29 28 28 28 28 27 28
27 27 26 26 23 17 23 25 26 26 26 28 30 31 30 29 29 29 28 28 27 27 27 28 29 29 28 27 26 25 23 20 30 29 29 29 28 28 27 27 26 25 24
25 24 25 23 18 17 18 25 28 29 29 29 29 31 30 30 31 30 29 27 26 26 26 27 27 27 26 25 24 23 22 22 27 28 28 28 27 27 26 25 24 25 23
23 24 24 22 26 11 25 29 31 32 32 26 23 24 27 27 29 29 29 27 26 25 24 23 20 19 19 19 18 18 19 18 21 26 27 27 27 26 25 24 24 23 22
21 22 23 25 27 27 29 30 30 28 28 26 26 27 26 26 25 27 27 26 24 23 20 17 18 18 18 16 14 12 11 14 21 24 26 26 26 25 24 24 23 22 21
21 24 26 30 29 29 30 29 27 26 25 25 24 25 25 25 25 23 23 23 21 18 17 17 18 19 16 13 14 11 9 9 20 23 24 25 25 24 23 22 21 20 20
23 26 29 29 27 27 27 25 24 22 23 24 19 10 17 19 21 22 21 20 18 19 18 17 20 17 7 10 11 10 9 8 17 22 23 23 23 22 22 21 19 18 17
24 26 29 28 26 26 23 24 24 24 22 14 14 6 9 14 16 21 18 16 22 20 23 17 18 20 16 14 13 15 13 10 17 16 20 20 20 20 19 19 17 16 14
22 26 19 27 26 23 11 21 25 24 22 18 15 5 12 18 17 9 10 9 23 9 12 13 16 16 16 9 12 10 16 13 14 13 12 15 15 12 12 13 14 14 12
21 28 14 17 6 6 12 21 24 20 22 22 19 21 22 19 14 12 11 11 12 13 13 13 19 21 19 16 8 14 4 16 15 13 11 15 14 14 10 10 9 9 9
25 23 14 13 13 7 23 23 22 20 21 21 23 19 19 18 16 12 15 14 15 15 15 18 19 20 9 14 16 17 13 16 13 13 13 14 14 11 11 10 8 7 7
20 23 21 15 17 22 24 23 19 19 16 20 18 17 17 18 19 14 14 15 13 18 18 16 15 15 13 15 17 17 15 11 7 12 13 13 12 7 10 9 8 7 7
20 22 24 22 19 22 25 22 19 18 19 16 16 15 13 14 3 19 18 17 8 21 19 19 18 13 11 10 13 7 8 8 5 13 16 12 11 5 9 7 6 6 6
17 18 21 23 18 18 19 17 19 18 17 15 11 14 12 10 10 18 22 21 21 19 19 20 22 24 24 21 20 14 9 8 17 14 11 9 6 5 10 10 7 7 7
15 15 18 15 16 13 12 12 12 13 14 14 15 12 16 18 20 12 22 22 21 21 20 22 24 25 25 23 24 25 22 20 18 13 19 26 8 6 7 11 9 7 6
15 15 17 11 14 10 9 10 10 12 11 15 18 17 21 22 21 25 24 24 23 24 25 24 25 23 24 24 26 27 26 27 22 25 28 28 27 13 2 5 8 8 7
16 16 19 11 11 8 6 4 8 12 15 14 14 18 21 22 23 22 26 26 25 25 27 25 26 24 26 27 27 25 27 23 32 27 30 30 30 28 23 7 5 9 8
17 17 14 11 9 7 5 8 10 11 14 17 17 19 21 19 23 23 25 28 26 27 27 28 25 27 28 29 29 28 29 29 32 35 25 30 28 26 19 13 13 13 6
14 15 15 14 13 12 8 3 10 11 15 17 17 18 18 20 20 22 26 32 25 24 28 27 28 29 29 31 32 33 34 35 34 33 35 33 31 32 25 29 24 23 16
10 12 10 3 6 8 3 8 8 7 16 16 18 19 19 18 21 20 19 27 28 27 28 29 29 30 31 31 32 32 32 29 32 35 37 36 36 36 15 11 20 18 12
Wind_Direction
133 143 166 134 68 53 45 33 37 30 30 40 44 48 49 54 60 70 76 77 84 86 92 94 93 90 89 89 89 88 86 90 91 87 84 80 78 83 90 66 68 64 66
114 138 102 119 71 61 46 32 25 19 36 47 51 51 54 59 65 70 80 90 93 94 102 102 95 99 102 99 97 94 97 100 98 95 90 83 84 73 67 69 70 75 72
93 98 112 104 79 54 39 193 1 24 52 56 59 60 65 70 77 90 98 107 108 114 120 108 106 103 109 107 108 110 110 107 106 101 94 91 95 89 79 79 76 70 67
94 93 103 92 75 32 195 6 0 69 59 56 64 63 67 85 78 104 116 123 123 129 127 122 116 109 112 118 121 119 118 118 116 114 105 98 99 98 94 90 87 81 72
84 94 90 86 71 15 342 46 72 74 65 67 75 74 85 110 121 132 133 134 132 132 133 127 120 116 121 130 128 124 121 123 121 126 124 105 107 103 99 95 91 89 79
90 94 92 85 62 41 70 64 56 52 72 85 83 94 113 130 140 141 139 137 135 134 132 126 122 121 130 134 133 132 130 128 123 102 107 110 110 108 104 101 92 88 84
94 96 92 82 66 64 54 67 83 70 63 93 98 110 127 135 141 141 138 136 135 134 131 124 121 124 133 136 135 133 130 127 110 106 105 108 109 108 107 105 101 103 102
97 97 93 87 72 52 70 73 80 79 80 91 110 122 133 136 138 138 137 137 136 133 130 126 125 128 135 138 137 135 132 129 111 105 106 107 108 106 106 104 103 106 110
96 90 92 81 61 53 56 81 91 87 85 127 133 128 135 138 133 132 135 139 139 136 132 130 130 135 141 143 142 138 136 129 113 106 106 108 109 106 106 105 106 106 107
95 95 96 85 100 42 83 99 104 106 115 140 148 147 143 144 140 135 134 138 140 140 139 139 146 152 156 157 156 153 142 137 128 110 108 109 109 109 107 105 105 105 106
94 94 98 109 151 138 109 108 124 129 129 139 140 142 146 147 150 141 138 140 144 146 151 159 158 158 164 176 183 192 185 156 130 113 109 110 109 109 109 108 105 105 106
102 107 115 133 143 128 122 114 131 136 145 145 153 151 150 153 154 154 145 147 151 159 162 168 166 165 170 189 194 205 222 228 146 113 113 111 111 111 111 110 110 107 106
112 124 139 135 143 149 128 120 145 162 159 152 161 203 191 193 174 156 155 151 163 152 147 165 156 179 275 312 236 257 245 256 167 113 114 114 116 114 112 112 112 115 114
117 123 130 145 151 152 163 138 147 145 161 199 199 332 256 200 196 177 168 160 123 135 124 142 123 66 5 287 247 217 324 302 169 165 119 121 119 119 117 114 113 116 120
121 129 109 145 148 166 151 100 142 148 168 185 199 241 99 181 184 240 267 285 114 257 198 181 33 35 51 275 210 228 2 266 229 180 198 150 127 126 123 125 115 116 125
122 143 96 96 32 303 47 91 117 125 170 178 176 160 160 161 228 239 290 286 260 333 248 266 33 15 74 77 118 13 264 170 208 190 160 132 121 129 135 138 140 131 135
141 128 106 93 81 317 172 129 128 159 139 171 166 175 168 220 215 253 246 206 174 324 252 305 80 38 108 43 129 94 110 118 202 160 138 123 99 140 138 131 135 142 141
124 136 127 106 109 139 154 169 202 182 136 158 152 134 142 171 185 252 305 91 257 259 264 336 73 56 100 99 133 97 86 157 137 184 196 143 132 136 174 127 117 142 138
130 137 144 137 121 135 149 165 182 171 207 151 148 138 117 128 36 272 269 226 143 290 295 306 333 16 57 125 98 132 181 193 171 158 155 93 117 165 193 180 146 159 156
127 132 139 144 127 121 127 126 162 149 129 301 336 138 122 103 45 310 284 271 267 285 311 311 306 296 280 257 249 235 226 213 44 112 105 102 107 168 197 221 190 177 167
122 131 136 132 133 116 111 102 95 309 321 341 336 4 315 302 284 4 303 294 312 306 313 314 310 290 268 264 274 281 322 261 10 30 7 314 230 97 185 219 205 181 172
126 131 140 120 132 116 106 104 6 0 352 331 315 314 307 308 312 290 284 297 303 299 301 306 307 308 306 287 290 289 316 290 320 317 296 294 299 21 142 200 206 196 194
128 134 144 123 125 119 105 40 6 341 331 350 344 331 320 315 311 318 302 302 312 312 296 306 307 319 307 300 292 317 313 331 286 321 289 295 282 280 268 234 236 206 203
135 135 135 142 138 129 118 335 335 340 330 325 336 327 327 328 321 318 312 306 314 312 307 297 316 310 309 301 303 299 300 313 307 298 330 316 278 269 258 247 241 233 213
128 137 145 147 146 138 136 50 344 340 331 324 336 342 342 329 327 328 309 291 316 318 313 314 312 311 314 305 301 303 297 287 295 302 299 312 316 284 264 276 265 269 248
134 134 128 91 110 99 359 314 337 35 321 327 329 333 339 343 332 339 335 310 307 312 309 313 317 312 309 309 307 306 309 315 309 297 289 295 291 294 326 348 254 246 356